Location: PSU-Greenbush Astrophysical Observatory
(37.5140°N, 94.9880°W)
Time: 18:32:24
(UTC-06:00)

deb Explorer IX - Pass Details

Date: 31 January 2020
Orbit: 549 x 1099 km, 38.8° (Epoch: 24 February)

Event Time Altitude Azimuth Distance (km) Brightness Sun altitude
Rises 01:22:44 0° 284° (WNW) 3,867 - -67.2°
Reaches altitude 10° 01:25:40 10° 277° (W) 2,936 - -66.9°
Maximum altitude 01:32:14 38° 213° (SSW) 1,614 - -66.2°
Drops below altitude 10° 01:38:40 10° 148° (SSE) 2,863 - -65.4°
Sets 01:41:29 0° 140° (SE) 3,760 - -65.0°
